Погода в Поршур-Тукле

Россия / Удмуртская Республика     57°05′45″N   52°09′14″E
темп.,
°C
ветер,
м/с
пор.,
м/с
влажн.,
%
обл.,
%
осадки,
мм/ч
давл.,
гПа
погр.,
м
17 мая, пн
пн1701:00+17ю3106383 0.0 1015211
04:00+15з118439 0.4 101612
07:00+19ссз127781 0.4 1016151
10:00+25зюз2455100 0.4 1016921
13:00+28зюз5103769 0.0 10162410
16:00+28зсз593677 0.0 10162546
19:00+22сз2766100 0.6 1016189
22:00+17ссз2274100 0.8 101731
18 мая, вт
вт1801:00+15с248076 0.0 101873
04:00+13св22895 0.0 101927
07:00+17ссв246676 0.0 1020276
10:00+21с344660 0.0 1020878
13:00+23ссв3437100 0.0 10201272
16:00+24ссв33356 0.0 10201555
19:00+22св235227 0.0 102081
22:00+16в31068100 0.0 1021239
19 мая, ср
ср1901:00+13в31073100 0.0 1022214
04:00+12в3108693 0.0 1023258
07:00+15в48695 0.0 1023454
10:00+20вюв46455 0.0 1023961
13:00+24вюв46315 0.0 10221336
16:00+25юв45283 0.0 10211515
19:00+21юв26455 0.0 1021210
22:00+14вюв24675 0.0 102257
20 мая, чт
чт2001:00+13вюв25703 0.0 102288
04:00+12вюв37755 0.0 1022115
07:00+16юв35585 0.0 1022200
10:00+22ююв3441100 0.0 1022945
13:00+25ююв46335 0.0 10201858
16:00+24ююв563211 0.0 10201856
19:00+21юв37450 0.0 1018366
22:00+15юв310670 0.0 1019181
21 мая, пт
пт2101:00+13вюв3965100 0.0 1017160
04:00+13вюв3106981 0.0 1017192
07:00+17юв4135375 0.0 1016508
10:00+19ююв495554 0.0 10151016
13:00+20ююв7106284 0.4 10141583
16:00+17ю61086100 2.4 1014999
19:00+17ююз31083100 0.4 1015820
22:00+13ю3109678 2.0 1015232